EETUEETN

Guest
Details From EETU - TARTU
To EETN - TALLINN
Flight Number -
Tags generated
Created
Modified
Stats Distance 88 nm / 163 km
Max Altitude 9,500 ft / 2,896 m
Waypoints 5
Social Downloads 0
Likes 0
Share VATSIM

Download

Looking for another format? Having issues loading an existing format? Contact us
Advertisement - Login to hide

Notes

Basic altitude profile: - Ascent Rate: 2500ft/min - Ascent Speed: 250kts - Cruise Altitude: 35000ft - Cruise Speed: 420kts - Descent Rate: 1500ft/min - Descent Speed: 250kts Options: - Use NATs: yes - Use PACOTS: yes - Use low airways: yes - Use high airways: yes

Route

EETU PILET L855 TLL EETN

ID Type Via Altitude Latitude Longitude Leg Dist Tot Dist Heading (true) Name
O EETU APT - 0 ft / 0 m 58.30746˚ 26.69043˚ - 0 nm - TARTU
PILET FIX - 7,100 ft / 2,164 m 58.56056˚ 26.27861˚ 19 nm 19 nm 320° / 319° -
GONOS FIX L855 (AWY-LO) 9,500 ft / 2,896 m 58.94250˚ 25.57694˚ 31 nm 51 nm 317° / 316° -
TLL VOR L855 (AWY-LO) 9,500 ft / 2,896 m 59.41133˚ 24.83844˚ 36 nm 87 nm 321° / 321° TALLINN VOR-DME
O EETN APT - 0 ft / 0 m 59.41326˚ 24.83280˚ 0 nm 88 nm 304° / 304° TALLINN

Altitude Profile

Advertisement - Login to hide

EETU

Details ICAO EETU (TAY)
Name TARTU
Region Estonia
Timezone Europe/Tallinn (UTC+2.0)
Stats Elevation 219 ft / 67 m (AMSL)
Location 58.307462° 26.690427°
Runways 1
Magnetic Variation 8.944° E

METAR

EETU 130150Z AUTO 21013KT 180V250 5000 DZ SCT009/// OVC016/// 03/01 Q0990

Decode

TAF

Not found

Departure Runways

ID Width Length Bearing (true) Bearing (mag) Surface Threshold Offset Overrun Length
08 115 ft / 35 m 4,510 ft / 1,375 m 88.42° 79.48° Asphalt 0 ft / 0 m 0 ft / 0 m
26 115 ft / 35 m 4,510 ft / 1,375 m 268.44° 259.50° Asphalt 0 ft / 0 m 0 ft / 0 m

EETN

Details ICAO EETN (TLL)
Name TALLINN
Region Estonia
Timezone Europe/Tallinn (UTC+2.0)
Stats Elevation 131 ft / 40 m (AMSL)
Location 59.413257° 24.832803°
Runways 1
Magnetic Variation 8.635° E

METAR

EETN 130150Z 29015G25KT 9999 BKN021 02/M02 Q0990 R08/290295

Decode

TAF

TAF EETN 122325Z 1300/1324 28016G26KT 9999 BKN010 OVC020 TEMPO 1300/1307 2000 SHSNRA BKN004 SCT013CB BECMG 1307/1309 22012KT BKN025 TEMPO 1314/1319 19015G25KT 2000 SHSNRA BKN005 SCT013CB

Decode

Destination Runways

ID Width Length Bearing (true) Bearing (mag) Surface Threshold Offset Overrun Length
08 148 ft / 45 m 10,023 ft / 3,055 m 90.24° 81.60° Asphalt 820 ft / 250 m 0 ft / 0 m
26 148 ft / 45 m 10,023 ft / 3,055 m 270.28° 261.64° Asphalt 0 ft / 0 m 184 ft / 56 m

Approach Navaids

Runway Type Ident Frequency Range Bearing (true) Bearing (mag) Slope Elevation
08 Localiser IIB 111.70 MHz 18 nm / 33 km 90.33° 81.69° - 131 ft / 40 m (AMSL)
08 Glidescope IIB 111.70 MHz 10 nm / 19 km 90.26° 81.63° 3.00° 131 ft / 40 m (AMSL)
26 Localiser ILK 110.30 MHz 18 nm / 33 km 270.24° 261.61° - 131 ft / 40 m (AMSL)
26 Glidescope ILK 110.30 MHz 10 nm / 19 km 270.26° 261.63° 3.00° 131 ft / 40 m (AMSL)

Popular Alternatives